DECAYED

NOAA 16 DEB, 41355 (Decayed)

Orbit data source: Space-Track

NOAA 16 DEB, 41355 was space debris in SSO originally from a launch on Thu, 21 Sep 2000 UTC launched from the Air Force Western Test Range (AFWTR). Debris objects in space refer to the collection of defunct objects orbiting the Earth. Examples of debris include non-operational satellites, rocket bodies, and fragments generated from explosions, collisions, or faulty payload assembly.

Not visible in the next 10 days
Identifier
41355, 2000-055HY
Orbit
Decayed
Country
Flag of USUS
Related business
Manufacturer
Unknown
Mission
Decayed spacecraft
Bus & Motor
Unknown
Mass
Unknown
Launch date (UTC)
Icon of a cake. It is the launch day of the satellite!2000-09-21 (26 years ago)
Launch vehicle
Unknown
Launch site
Air Force Western Test Range (AFWTR)
Object type
Payload
Rocket body
Debris
Shape & HBR
Unknown shape, 0.1 m
Radar Cross Section
Medium (>0.1 m² and <1 m²)

Expand to show TLE details & history
Last TLE update: 1 year ago

TLE from 1 year ago
0 NOAA 16 DEB
1 41355U 00055HY  25270.34463717  .00246113  00000-0  18853-1 0  9992
2 41355  98.8177  57.8765 0004442 234.7583 125.3222 15.00537748503537
Epoch: 2025-09-27T08:16Z
TLE epoch observation values (Epoch: 2025-09-27T08:16:16.651Z)
Latitude
-0.00001°
Longitude
-72.57128°
Altitude
570.042 km
Speed
7.575 km/s
True Right ascension
03h 51m 30s
True Declination
0° 00' 00"
Sunlit
Object was in full shadow at epoch
Visualization orbit readout
Latitude
Unknown
Longitude
Unknown
Altitude
Unknown
Speed
Unknown
Apparent Right ascension
Unknown
Apparent Declination
Unknown
Sunlit
N/A
Visualization observer readout
Local Sidereal Time
19:07:12
Azimuth
Unknown
Elevation
Unknown
Doppler factor
Unknown
Orbital elements
Apogee altitude
565.377 km
Perigee altitude
559.211 km
Semi-major axis
6,940.431 km
Eccentricity
0.00044
Inclination
98.8177°
RAAN
57.8765°
Arg. of periapsis
234.7583°
True anomaly
125.36372°
Mean anomaly
125.3222°
Eccentric anomaly
125.34296°
Mean motion
3.75373 °/min
Orbital period
95.9 mins
BSTAR
0.018853
Loading maneuver chart data...
Computing Atmospheric mass density...
Loading historical data...
Loading historical data...
Loading historical data...
Loading historical data...
Loading historical data...
Loading historical data...
Loading historical data...

Documentation

Showing up to 5 results
|